FW1286 Weather Reports


Display with metric or nautical units.
time (UTC)temp
F
wind
direction
speed
MPH
gust
MPH
rain 1hr
in
rain 24hr
in
rain mn
in
humidity
%
barometer
mb
20260508135254 61 321 1.0 4.0 0.00 0.02 0.02 95 1013.4
20260508133106 60 165 0.0 1.0 0.00 0.02 0.02 96 1014.0
20260508132045 60 165 0.0 0.0 0.00 0.02 0.02 96 1014.0
20260508131046 60 130 0.0 1.0 0.00 0.02 0.02 96 1014.1
20260508124921 59 130 0.0 2.0 0.00 0.02 0.02 96 1013.9
20260508122820 58 130 0.0 0.0 0.00 0.02 0.02 96 1014.0
20260508121813 58 130 0.0 4.0 0.00 0.02 0.02 95 1014.1
20260508120758 58 76 0.0 4.0 0.00 0.02 0.02 96 1014.2
20260508115753 58 24 1.0 5.0 0.00 0.02 0.02 95 1014.0
20260508114722 58 28 1.0 5.0 0.00 0.02 0.02 95 1014.2
20260508113730 58 78 0.0 3.0 0.00 0.02 0.02 95 1014.5
20260508112741 58 24 0.0 3.0 0.00 0.02 0.02 95 1014.3
20260508111740 58 5 2.0 5.0 0.00 0.02 0.02 95 1014.3
20260508110717 58 320 3.0 5.0 0.00 0.02 0.02 95 1014.2
20260508105705 58 332 3.0 6.0 0.00 0.02 0.02 95 1014.4
20260508103550 58 332 0.0 0.0 0.00 0.02 0.02 95 1014.3
20260508102606 58 332 0.0 0.0 0.00 0.02 0.02 95 1014.7
20260508093010 59 307 1.0 4.0 0.00 0.00 0.00 94 1015.2
20260508091943 58 304 0.0 3.0 0.00 0.00 0.00 95 1015.0
20260508085756 58 153 0.0 3.0 0.00 0.00 0.00 95 1014.8
20260508084758 58 153 0.0 1.0 0.00 0.00 0.00 95 1014.5
20260508083812 58 153 0.0 0.0 0.00 0.00 0.00 95 1014.6
20260508082742 57 126 0.0 3.0 0.00 0.00 0.00 94 1014.7
20260508081755 57 65 0.0 0.0 0.00 0.00 0.00 94 1014.4
20260508080724 57 65 0.0 2.0 0.00 0.00 0.00 94 1014.3
20260508075741 57 65 0.0 0.0 0.00 0.00 0.00 94 1014.1
20260508074713 57 65 0.0 0.0 0.00 0.00 0.00 94 1014.2
20260508073648 56 65 0.0 0.0 0.00 0.00 0.00 94 1014.2
20260508072658 56 65 0.0 0.0 0.00 0.00 0.00 94 1014.2
20260508071651 56 65 0.0 0.0 0.00 0.00 0.00 94 1014.3
20260508070715 56 65 0.0 0.0 0.00 0.00 0.00 94 1014.7
20260508065652 56 65 0.0 1.0 0.00 0.00 0.00 94 1014.6
20260508064629 56 65 0.0 0.0 0.00 0.00 0.00 94 1015.2
20260508063642 56 65 0.0 0.0 0.00 0.00 0.00 94 1015.4
20260508062656 56 65 0.0 0.0 0.00 0.00 0.00 93 1015.3
20260508060609 56 65 0.0 0.0 0.00 0.00 0.00 93 1015.4
20260508053309 57 65 0.0 0.0 0.00 0.00 0.00 93 1015.1
20260508052312 57 65 0.0 0.0 0.00 0.00 0.00 92 1015.3
20260508051332 57 65 0.0 0.0 0.00 0.00 0.00 92 1015.2
20260508050346 57 65 0.0 1.0 0.00 0.00 0.00 92 1015.0
20260508045409 57 65 0.0 0.0 0.00 0.00 0.00 92 1015.3
20260508044349 57 65 0.0 0.0 0.00 0.00 0.00 92 1015.6
20260508043356 57 65 0.0 0.0 0.00 0.00 0.00 91 1015.8
20260508042341 57 65 0.0 0.0 0.00 0.00 0.00 91 1015.9
20260508041307 57 65 0.0 0.0 0.00 0.00 0.00 91 1015.8
20260508040247 57 65 0.0 0.0 0.00 0.00 0.00 91 1015.5
20260508035247 57 65 0.0 1.0 0.00 0.00 0.00 90 1015.7
20260508034245 58 65 0.0 0.0 0.00 0.00 0.00 90 1016.4
20260508033229 58 65 0.0 0.0 0.00 0.00 0.00 89 1016.1
20260508032237 58 65 0.0 0.0 0.00 0.00 0.00 89 1016.0
20260508031220 59 65 0.0 1.0 0.00 0.00 0.00 89 1015.7
20260508030202 59 65 1.0 4.0 0.00 0.00 0.00 89 1015.2
20260508023010 59 13 0.0 0.0 0.00 0.00 0.00 87 1014.5
20260508020835 60 5 0.0 0.0 0.00 0.00 0.00 85 1014.3
20260508015837 60 5 0.0 3.0 0.00 0.00 0.00 85 1014.4
20260508013659 61 22 0.0 1.0 0.00 0.00 0.00 82 1014.1
20260508011454 62 348 1.0 4.0 0.00 0.00 0.00 81 1014.4
20260508010518 62 343 2.0 6.0 0.00 0.00 0.00 80 1014.4
20260508005450 63 5 1.0 6.0 0.00 0.00 0.00 79 1014.2
20260508004453 63 26 1.0 4.0 0.00 0.00 0.00 78 1014.4
20260508001230 64 5 2.0 5.0 0.00 0.00 0.00 74 1015.3
20260508000216 65 14 2.0 5.0 0.00 0.00 0.00 74 1015.0
20260507235215 65 355 2.0 5.0 0.00 0.00 0.00 73 1015.4
20260507231903 65 321 3.0 7.0 0.00 0.00 0.00 73 1015.5
20260507230903 65 350 2.0 7.0 0.00 0.00 0.00 72 1014.9
20260507225922 65 342 3.0 6.0 0.00 0.00 0.00 73 1015.5
20260507224914 65 5 3.0 6.0 0.00 0.00 0.00 73 1015.6
20260507223900 65 315 4.0 6.0 0.00 0.00 0.00 75 1015.8
20260507222900 64 311 4.0 7.0 0.00 0.00 0.00 74 1015.8
20260507221905 64 304 3.0 7.0 0.00 0.00 0.00 74 1016.1
20260507220835 64 304 4.0 7.0 0.00 0.00 0.00 73 1016.1
20260507215850 64 338 3.0 6.0 0.00 0.00 0.00 75 1015.9
20260507214840 64 351 3.0 7.0 0.00 0.00 0.00 73 1016.6
20260507213850 64 355 4.0 10.0 0.00 0.00 0.00 74 1016.7
20260507212842 64 291 6.0 10.0 0.00 0.00 0.00 75 1017.0
20260507210702 64 304 5.0 9.0 0.00 0.00 0.00 74 1017.2
20260507205631 63 323 5.0 10.0 0.00 0.00 0.00 75 1017.1
20260507204637 63 355 5.0 10.0 0.00 0.00 0.00 74 1017.2
20260507203637 62 72 5.0 10.0 0.00 0.00 0.00 77 1016.7
20260507202607 62 333 6.0 10.0 0.00 0.00 0.00 77 1017.2
20260507201539 62 339 4.0 8.0 0.00 0.00 0.00 77 1017.7
20260507200525 62 323 6.0 11.0 0.00 0.00 0.00 78 1017.0
20260507195514 62 314 7.0 11.0 0.00 0.00 0.00 77 1017.1
20260507194454 62 284 5.0 9.0 0.00 0.00 0.00 77 1017.7
20260507193445 62 302 4.0 9.0 0.00 0.00 0.00 78 1018.0
20260507192453 63 311 3.0 10.0 0.00 0.00 0.00 78 1018.4
20260507184046 61 350 7.0 12.0 0.00 0.00 0.00 79 1017.6
20260507181939 61 0 6.0 9.0 0.00 0.00 0.00 78 1018.0
20260507175827 61 0 6.0 12.0 0.00 0.00 0.00 79 1017.7
20260507174803 61 313 6.0 12.0 0.00 0.00 0.00 79 1018.3
20260507172640 60 330 7.0 13.0 0.00 0.00 0.00 80 1017.4
20260507171646 60 12 6.0 11.0 0.00 0.00 0.00 81 1017.7
20260507170632 60 334 5.0 12.0 0.00 0.00 0.00 81 1018.7
20260507165653 59 338 8.0 14.0 0.00 0.00 0.00 82 1018.8
20260507164704 59 335 7.0 14.0 0.00 0.00 0.00 82 1017.6
20260507163646 59 333 6.0 10.0 0.00 0.00 0.00 82 1018.2
20260507162615 59 339 3.0 9.0 0.00 0.00 0.00 83 1019.6
20260507161618 59 337 4.0 9.0 0.00 0.00 0.00 84 1020.1
20260507154354 59 334 4.0 11.0 0.00 0.00 0.00 86 1019.8
20260507153410 58 317 7.0 11.0 0.00 0.00 0.00 85 1019.4
20260507152349 59 336 5.0 9.0 0.00 0.02 0.00 87 1019.1
20260507151334 58 310 5.0 9.0 0.00 0.04 0.00 87 1019.7
20260507150259 58 11 5.0 12.0 0.00 0.04 0.00 88 1019.1
20260507145248 57 296 7.0 13.0 0.00 0.04 0.00 88 1019.3
20260507144224 57 333 8.0 14.0 0.00 0.04 0.00 89 1018.8
20260507142119 57 326 7.0 12.0 0.00 0.04 0.00 91 1019.3
20260507135947 56 325 6.0 12.0 0.00 0.04 0.00 91 1018.7